When you browse on this site, cookies collect data to enhance your experience and personalize the content and advertising you see.
Visit our Privacy Policy to learn more. By continuing to use the site, you agree to this use of cookies and data.
  • In Lithuania
  • List of Countries
  • For 7 days
  • Water Temperature
  • Weather Map
  • Weather Widgets
  • user-avatar
    Login

    Hourly Weather Rydwagi

    Today, 1 April, Wednesday

    Time Temperature Precipitation Wind Pressure Humidity
    00:00 -4°C° 0 mm 4 mps 752 mmHg 80%
    01:00 -4°C° 0 mm 4 mps 751 mmHg 76%
    02:00 -5°C° 0 mm 5 mps 751 mmHg 74%
    03:00 -5°C° 0 mm 5 mps 750 mmHg 71%
    04:00 -5°C° 0 mm 5 mps 749 mmHg 68%
    05:00 -5°C° 0 mm 6 mps 749 mmHg 67%
    06:00 -4°C° 0 mm 6 mps 749 mmHg 66%
    07:00 -3°C° 0 mm 7 mps 748 mmHg 65%
    08:00 -2°C° 0 mm 7 mps 748 mmHg 65%
    09:00 -1°C° 0 mm 7 mps 747 mmHg 65%
    10:00 0°C° 0 mm 7 mps 747 mmHg 65%
    11:00 +2°C° 0 mm 7 mps 747 mmHg 64%
    12:00 +3°C° 0 mm 7 mps 747 mmHg 63%
    13:00 +3°C° 0 mm 7 mps 746 mmHg 62%
    14:00 +3°C° 0.1 mm 7 mps 746 mmHg 64%
    15:00 +3°C° 0.1 mm 7 mps 746 mmHg 66%
    16:00 +3°C° 0.1 mm 6 mps 745 mmHg 68%
    17:00 +2°C° 0 mm 5 mps 745 mmHg 74%
    18:00 +1°C° 0 mm 5 mps 745 mmHg 79%
    19:00 0°C° 0 mm 4 mps 744 mmHg 85%
    20:00 0°C° 0.1 mm 4 mps 744 mmHg 88%
    21:00 0°C° 0.1 mm 5 mps 743 mmHg 91%
    22:00 -1°C° 0.1 mm 6 mps 743 mmHg 94%
    23:00 -1°C° 0 mm 6 mps 743 mmHg 91%

    Tomorrow, 2 April, Thursday

    Time Temperature Precipitation Wind Pressure Humidity
    00:00 -1°C° 0 mm 6 mps 742 mmHg 89%
    01:00 +1°C° 0 mm 6 mps 742 mmHg 87%
    02:00 +1°C° 0 mm 6 mps 742 mmHg 87%
    03:00 -1°C° 0 mm 6 mps 741 mmHg 87%
    04:00 -1°C° 0 mm 6 mps 741 mmHg 88%
    05:00 +1°C° 0 mm 6 mps 741 mmHg 86%
    06:00 0°C° 0 mm 7 mps 741 mmHg 84%
    07:00 0°C° 0 mm 7 mps 741 mmHg 83%
    08:00 0°C° 0 mm 7 mps 741 mmHg 82%
    09:00 +2°C° 0 mm 7 mps 741 mmHg 82%
    10:00 +2°C° 0 mm 7 mps 741 mmHg 82%
    11:00 +3°C° 0 mm 7 mps 741 mmHg 77%
    12:00 +3°C° 0 mm 7 mps 741 mmHg 72%
    13:00 +4°C° 0 mm 7 mps 741 mmHg 68%
    14:00 +4°C° 0 mm 6 mps 741 mmHg 68%
    15:00 +4°C° 0 mm 6 mps 741 mmHg 69%
    16:00 +3°C° 0 mm 6 mps 740 mmHg 70%
    17:00 +3°C° 0 mm 5 mps 740 mmHg 70%
    18:00 +3°C° 0 mm 5 mps 740 mmHg 71%
    19:00 +3°C° 0 mm 5 mps 740 mmHg 71%
    20:00 +3°C° 0 mm 6 mps 739 mmHg 70%
    21:00 +3°C° 0 mm 6 mps 738 mmHg 69%
    22:00 +3°C° 0 mm 6 mps 738 mmHg 68%
    23:00 +2°C° 0 mm 6 mps 737 mmHg 70%

    Day after tomorrow, 3 April, Friday

    Time Temperature Precipitation Wind Pressure Humidity
    00:00 +2°C° 0 mm 6 mps 737 mmHg 71%
    01:00 +2°C° 0 mm 7 mps 737 mmHg 72%
    02:00 +2°C° 0.1 mm 7 mps 736 mmHg 76%
    03:00 +2°C° 0.1 mm 7 mps 736 mmHg 80%
    04:00 +2°C° 0.1 mm 7 mps 736 mmHg 85%
    05:00 +2°C° 0.4 mm 7 mps 736 mmHg 81%
    06:00 +2°C° 0.4 mm 7 mps 737 mmHg 78%
    07:00 +2°C° 0.4 mm 7 mps 737 mmHg 74%
    08:00 +1°C° 0.1 mm 8 mps 738 mmHg 70%
    09:00 +2°C° 0.1 mm 8 mps 738 mmHg 66%
    10:00 +3°C° 0.1 mm 9 mps 739 mmHg 62%
    11:00 +3°C° 0.1 mm 9 mps 739 mmHg 56%
    12:00 +5°C° 0.1 mm 9 mps 740 mmHg 50%
    13:00 +6°C° 0.1 mm 8 mps 741 mmHg 44%
    14:00 +5°C° 0.1 mm 8 mps 741 mmHg 49%
    15:00 +5°C° 0.1 mm 8 mps 741 mmHg 53%
    16:00 +4°C° 0.1 mm 8 mps 741 mmHg 57%
    17:00 +3°C° 0.2 mm 6 mps 742 mmHg 62%
    18:00 +2°C° 0.2 mm 5 mps 743 mmHg 66%
    19:00 +1°C° 0.2 mm 4 mps 743 mmHg 71%
    20:00 0°C° 0 mm 4 mps 744 mmHg 70%
    21:00 0°C° 0 mm 5 mps 744 mmHg 70%
    22:00 0°C° 0 mm 5 mps 745 mmHg 70%
    23:00 -1°C° 0 mm 5 mps 745 mmHg 72%

    4 April, Saturday

    Time Temperature Precipitation Wind Pressure Humidity
    00:00 -1°C° 0 mm 5 mps 746 mmHg 73%
    01:00 -1°C° 0 mm 5 mps 746 mmHg 75%
    02:00 -2°C° 0 mm 5 mps 747 mmHg 76%
    03:00 -2°C° 0 mm 5 mps 747 mmHg 77%
    04:00 -2°C° 0 mm 5 mps 748 mmHg 78%
    05:00 -1°C° 0 mm 5 mps 749 mmHg 75%
    06:00 -2°C° 0 mm 6 mps 750 mmHg 71%
    07:00 -1°C° 0 mm 7 mps 751 mmHg 68%
    08:00 0°C° 0.1 mm 7 mps 751 mmHg 63%
    09:00 +2°C° 0.1 mm 7 mps 752 mmHg 59%
    10:00 +3°C° 0.1 mm 7 mps 753 mmHg 55%
    11:00 +3°C° 0 mm 7 mps 753 mmHg 53%
    12:00 +4°C° 0 mm 7 mps 754 mmHg 51%
    13:00 +4°C° 0 mm 6 mps 755 mmHg 49%
    14:00 +4°C° 0 mm 6 mps 755 mmHg 49%
    15:00 +4°C° 0 mm 6 mps 755 mmHg 49%
    16:00 +3°C° 0 mm 6 mps 756 mmHg 50%
    17:00 +2°C° 0 mm 5 mps 756 mmHg 56%
    18:00 0°C° 0 mm 4 mps 757 mmHg 63%
    19:00 +1°C° 0 mm 2 mps 758 mmHg 70%
    20:00 -1°C° 0 mm 2 mps 758 mmHg 72%
    21:00 -1°C° 0 mm 2 mps 759 mmHg 75%
    22:00 0°C° 0 mm 1 mps 760 mmHg 77%
    23:00 0°C° 0 mm 1 mps 760 mmHg 77%

    5 April, Sunday

    Time Temperature Precipitation Wind Pressure Humidity
    00:00 0°C° 0 mm 1 mps 760 mmHg 76%
    01:00 -1°C° 0 mm 0 mps 761 mmHg 76%
    02:00 0°C° 0 mm 1 mps 761 mmHg 75%
    03:00 0°C° 0 mm 1 mps 761 mmHg 74%
    04:00 0°C° 0 mm 1 mps 762 mmHg 73%
    05:00 -1°C° 0 mm 2 mps 762 mmHg 69%
    06:00 +1°C° 0 mm 2 mps 762 mmHg 64%
    07:00 +2°C° 0 mm 2 mps 763 mmHg 59%
    08:00 +2°C° 0 mm 3 mps 763 mmHg 54%
    09:00 +4°C° 0 mm 3 mps 763 mmHg 48%
    10:00 +7°C° 0 mm 3 mps 763 mmHg 43%
    11:00 +8°C° 0 mm 3 mps 763 mmHg 42%
    12:00 +7°C° 0 mm 4 mps 763 mmHg 41%
    13:00 +8°C° 0 mm 4 mps 762 mmHg 40%
    14:00 +8°C° 0 mm 4 mps 762 mmHg 41%
    15:00 +8°C° 0 mm 4 mps 762 mmHg 43%
    16:00 +8°C° 0 mm 4 mps 761 mmHg 44%
    17:00 +7°C° 0 mm 4 mps 761 mmHg 50%
    18:00 +5°C° 0 mm 3 mps 761 mmHg 55%
    19:00 +3°C° 0 mm 3 mps 761 mmHg 61%
    20:00 +3°C° 0 mm 3 mps 761 mmHg 60%
    21:00 +1°C° 0 mm 4 mps 761 mmHg 59%
    22:00 +1°C° 0 mm 4 mps 761 mmHg 59%
    23:00 +1°C° 0 mm 4 mps 761 mmHg 60%

    6 April, Monday

    Time Temperature Precipitation Wind Pressure Humidity
    00:00 +1°C° 0 mm 5 mps 761 mmHg 60%
    01:00 +1°C° 0 mm 5 mps 761 mmHg 61%
    02:00 0°C° 0 mm 4 mps 761 mmHg 62%
    03:00 0°C° 0 mm 4 mps 761 mmHg 63%
    04:00 0°C° 0 mm 4 mps 761 mmHg 64%
    05:00 +1°C° 0 mm 5 mps 761 mmHg 62%
    06:00 +1°C° 0 mm 6 mps 761 mmHg 59%
    07:00 +2°C° 0 mm 6 mps 761 mmHg 57%
    08:00 +4°C° 0 mm 6 mps 760 mmHg 54%
    09:00 +6°C° 0 mm 7 mps 760 mmHg 52%
    10:00 +9°C° 0 mm 7 mps 760 mmHg 49%
    11:00 +10°C° 0 mm 7 mps 760 mmHg 49%
    12:00 +11°C° 0 mm 7 mps 760 mmHg 48%
    13:00 +14°C° 0 mm 7 mps 759 mmHg 48%
    14:00 +14°C° 0 mm 7 mps 759 mmHg 48%
    15:00 +14°C° 0 mm 7 mps 759 mmHg 48%
    16:00 +12°C° 0 mm 7 mps 758 mmHg 48%
    17:00 +11°C° 0 mm 6 mps 758 mmHg 50%
    18:00 +9°C° 0 mm 6 mps 758 mmHg 53%
    19:00 +8°C° 0 mm 5 mps 758 mmHg 55%
    20:00 +7°C° 0 mm 6 mps 758 mmHg 55%
    21:00 +7°C° 0 mm 6 mps 758 mmHg 54%
    22:00 +7°C° 0 mm 6 mps 758 mmHg 54%
    23:00 +5°C° 0 mm 6 mps 758 mmHg 56%
    Show more